Year,Month,Day,Hour,Minute,Value (Times are PST for temperature in C)
2019,08,08,00,00,18.80
2019,08,08,00,01,18.80
2019,08,08,00,02,18.80
2019,08,08,00,03,18.80
2019,08,08,00,04,18.70
2019,08,08,00,05,18.70
2019,08,08,00,06,18.70
2019,08,08,00,07,18.70
2019,08,08,00,08,18.70
2019,08,08,00,09,18.60
2019,08,08,00,10,18.60
2019,08,08,00,11,18.60
2019,08,08,00,12,18.60
2019,08,08,00,13,18.50
2019,08,08,00,14,18.50
2019,08,08,00,15,18.50
2019,08,08,00,16,18.50
2019,08,08,00,17,18.40
2019,08,08,00,18,18.40
2019,08,08,00,19,18.40
2019,08,08,00,20,18.40
2019,08,08,00,21,18.40
2019,08,08,00,22,18.30
2019,08,08,00,23,18.30
2019,08,08,00,24,18.30
2019,08,08,00,25,18.30
2019,08,08,00,26,18.30
2019,08,08,00,27,18.30
2019,08,08,00,28,18.30
2019,08,08,00,29,18.30
2019,08,08,00,30,18.30
2019,08,08,00,31,18.20
2019,08,08,00,32,18.20
2019,08,08,00,33,18.20
2019,08,08,00,34,18.20
2019,08,08,00,35,18.20
2019,08,08,00,36,18.20
2019,08,08,00,37,18.20
2019,08,08,00,38,18.20
2019,08,08,00,39,18.20
2019,08,08,00,40,18.20
2019,08,08,00,41,18.20
2019,08,08,00,42,18.20
2019,08,08,00,43,18.20
2019,08,08,00,44,18.20
2019,08,08,00,45,18.10
2019,08,08,00,46,18.10
2019,08,08,00,47,18.10
2019,08,08,00,48,18.10
2019,08,08,00,49,18.10
2019,08,08,00,50,18.00
2019,08,08,00,51,18.00
2019,08,08,00,52,18.00
2019,08,08,00,53,18.00
2019,08,08,00,54,18.00
2019,08,08,00,55,17.90
2019,08,08,00,56,17.90
2019,08,08,00,57,17.90
2019,08,08,00,58,17.90
2019,08,08,00,59,17.90
2019,08,08,01,00,17.90
2019,08,08,01,01,17.90
2019,08,08,01,02,17.90
2019,08,08,01,03,17.80
2019,08,08,01,04,17.80
2019,08,08,01,05,17.80
2019,08,08,01,06,17.80
2019,08,08,01,07,17.80
2019,08,08,01,08,17.80
2019,08,08,01,09,17.70
2019,08,08,01,10,17.70
2019,08,08,01,11,17.70
2019,08,08,01,12,17.70
2019,08,08,01,13,17.70
2019,08,08,01,14,17.70
2019,08,08,01,15,17.60
2019,08,08,01,16,17.60
2019,08,08,01,17,17.60
2019,08,08,01,18,17.60
2019,08,08,01,19,17.60
2019,08,08,01,20,17.60
2019,08,08,01,21,17.60
2019,08,08,01,22,17.50
2019,08,08,01,23,17.50
2019,08,08,01,24,17.50
2019,08,08,01,25,17.50
2019,08,08,01,26,17.50
2019,08,08,01,27,17.50
2019,08,08,01,28,17.50
2019,08,08,01,29,17.40
2019,08,08,01,30,17.40
2019,08,08,01,31,17.40
2019,08,08,01,32,17.40
2019,08,08,01,33,17.40
2019,08,08,01,34,17.40
2019,08,08,01,35,17.40
2019,08,08,01,36,17.40
2019,08,08,01,37,17.30
2019,08,08,01,38,17.30
2019,08,08,01,39,17.30
2019,08,08,01,40,17.30
2019,08,08,01,41,17.30
2019,08,08,01,42,17.30
2019,08,08,01,43,17.30
2019,08,08,01,44,17.30
2019,08,08,01,45,17.30
2019,08,08,01,46,17.20
2019,08,08,01,47,17.20
2019,08,08,01,48,17.20
2019,08,08,01,49,17.20
2019,08,08,01,50,17.20
2019,08,08,01,51,17.10
2019,08,08,01,52,17.10
2019,08,08,01,53,17.10
2019,08,08,01,54,17.10
2019,08,08,01,55,17.10
2019,08,08,01,56,17.10
2019,08,08,01,57,17.00
2019,08,08,01,58,17.00
2019,08,08,01,59,17.00
2019,08,08,02,00,17.00
2019,08,08,02,01,16.90
2019,08,08,02,02,16.90
2019,08,08,02,03,16.90
2019,08,08,02,04,16.90
2019,08,08,02,05,16.90
2019,08,08,02,06,16.90
2019,08,08,02,07,16.90
2019,08,08,02,08,16.90
2019,08,08,02,09,16.90
2019,08,08,02,10,16.80
2019,08,08,02,11,16.80
2019,08,08,02,12,16.80
2019,08,08,02,13,16.80
2019,08,08,02,14,16.80
2019,08,08,02,15,16.80
2019,08,08,02,16,16.80
2019,08,08,02,17,16.80
2019,08,08,02,18,16.70
2019,08,08,02,19,16.70
2019,08,08,02,20,16.70
2019,08,08,02,21,16.70
2019,08,08,02,22,16.70
2019,08,08,02,23,16.60
2019,08,08,02,24,16.60
2019,08,08,02,25,16.60
2019,08,08,02,26,16.60
2019,08,08,02,27,16.60
2019,08,08,02,28,16.60
2019,08,08,02,29,16.60
2019,08,08,02,30,16.60
2019,08,08,02,31,16.50
2019,08,08,02,32,16.50
2019,08,08,02,33,16.50
2019,08,08,02,34,16.50
2019,08,08,02,35,16.50
2019,08,08,02,36,16.50
2019,08,08,02,37,16.50
2019,08,08,02,38,16.50
2019,08,08,02,39,16.50
2019,08,08,02,40,16.50
2019,08,08,02,41,16.40
2019,08,08,02,42,16.40
2019,08,08,02,43,16.40
2019,08,08,02,44,16.40
2019,08,08,02,45,16.40
2019,08,08,02,46,16.30
2019,08,08,02,47,16.30
2019,08,08,02,48,16.30
2019,08,08,02,49,16.30
2019,08,08,02,50,16.30
2019,08,08,02,51,16.30
2019,08,08,02,52,16.20
2019,08,08,02,53,16.20
2019,08,08,02,54,16.20
2019,08,08,02,55,16.20
2019,08,08,02,56,16.20
2019,08,08,02,57,16.20
2019,08,08,02,58,16.20
2019,08,08,02,59,16.20
2019,08,08,03,00,16.20
2019,08,08,03,01,16.10
2019,08,08,03,02,16.10
2019,08,08,03,03,16.10
2019,08,08,03,04,16.10
2019,08,08,03,05,16.10
2019,08,08,03,06,16.10
2019,08,08,03,07,16.10
2019,08,08,03,08,16.00
2019,08,08,03,09,16.00
2019,08,08,03,10,16.00
2019,08,08,03,11,16.00
2019,08,08,03,12,16.00
2019,08,08,03,13,15.90
2019,08,08,03,14,15.90
2019,08,08,03,15,15.90
2019,08,08,03,16,15.90
2019,08,08,03,17,15.90
2019,08,08,03,18,15.90
2019,08,08,03,19,15.90
2019,08,08,03,20,15.90
2019,08,08,03,21,15.90
2019,08,08,03,22,15.90
2019,08,08,03,23,15.90
2019,08,08,03,24,15.90
2019,08,08,03,25,15.90
2019,08,08,03,26,15.90
2019,08,08,03,27,15.80
2019,08,08,03,28,15.80
2019,08,08,03,29,15.80
2019,08,08,03,30,15.80
2019,08,08,03,31,15.80
2019,08,08,03,32,15.80
2019,08,08,03,33,15.80
2019,08,08,03,34,15.80
2019,08,08,03,35,15.80
2019,08,08,03,36,15.80
2019,08,08,03,37,15.80
2019,08,08,03,38,15.80
2019,08,08,03,39,15.80
2019,08,08,03,40,15.80
2019,08,08,03,41,15.80
2019,08,08,03,42,15.80
2019,08,08,03,43,15.80
2019,08,08,03,44,15.80
2019,08,08,03,45,15.70
2019,08,08,03,46,15.70
2019,08,08,03,47,15.70
2019,08,08,03,48,15.70
2019,08,08,03,49,15.70
2019,08,08,03,50,15.70
2019,08,08,03,51,15.70
2019,08,08,03,52,15.70
2019,08,08,03,53,15.70
2019,08,08,03,54,15.70
2019,08,08,03,55,15.60
2019,08,08,03,56,15.60
2019,08,08,03,57,15.60
2019,08,08,03,58,15.60
2019,08,08,03,59,15.60
2019,08,08,04,00,15.60
2019,08,08,04,01,15.60
2019,08,08,04,02,15.50
2019,08,08,04,03,15.50
2019,08,08,04,04,15.50
2019,08,08,04,05,15.50
2019,08,08,04,06,15.50
2019,08,08,04,07,15.40
2019,08,08,04,08,15.40
2019,08,08,04,09,15.40
2019,08,08,04,10,15.40
2019,08,08,04,11,15.40
2019,08,08,04,12,15.40
2019,08,08,04,13,15.30
2019,08,08,04,14,15.30
2019,08,08,04,15,15.30
2019,08,08,04,16,15.30
2019,08,08,04,17,15.30
2019,08,08,04,18,15.30
2019,08,08,04,19,15.30
2019,08,08,04,20,15.30
2019,08,08,04,21,15.30
2019,08,08,04,22,15.30
2019,08,08,04,23,15.30
2019,08,08,04,24,15.30
2019,08,08,04,25,15.30
2019,08,08,04,26,15.30
2019,08,08,04,27,15.30
2019,08,08,04,28,15.20
2019,08,08,04,29,15.20
2019,08,08,04,30,15.20
2019,08,08,04,31,15.20
2019,08,08,04,32,15.20
2019,08,08,04,33,15.20
2019,08,08,04,34,15.20
2019,08,08,04,35,15.20
2019,08,08,04,36,15.20
2019,08,08,04,37,15.20
2019,08,08,04,38,15.20
2019,08,08,04,39,15.20
2019,08,08,04,40,15.20
2019,08,08,04,41,15.20
2019,08,08,04,42,15.20
2019,08,08,04,43,15.20
2019,08,08,04,44,15.30
2019,08,08,04,45,15.30
2019,08,08,04,46,15.30
2019,08,08,04,47,15.30
2019,08,08,04,48,15.30
2019,08,08,04,49,15.30
2019,08,08,04,50,15.30
2019,08,08,04,51,15.30
2019,08,08,04,52,15.30
2019,08,08,04,53,15.30
2019,08,08,04,54,15.30
2019,08,08,04,55,15.30
2019,08,08,04,56,15.30
2019,08,08,04,57,15.30
2019,08,08,04,58,15.30
2019,08,08,04,59,15.30
2019,08,08,05,00,15.30
2019,08,08,05,01,15.30
2019,08,08,05,02,15.30
2019,08,08,05,03,15.30
2019,08,08,05,04,15.30
2019,08,08,05,05,15.30
2019,08,08,05,06,15.30
2019,08,08,05,07,15.30
2019,08,08,05,08,15.30
2019,08,08,05,09,15.30
2019,08,08,05,10,15.30
2019,08,08,05,11,15.30
2019,08,08,05,12,15.30
2019,08,08,05,13,15.30
2019,08,08,05,14,15.30
2019,08,08,05,15,15.30
2019,08,08,05,16,15.30
2019,08,08,05,17,15.30
2019,08,08,05,18,15.30
2019,08,08,05,19,15.30
2019,08,08,05,20,15.40
2019,08,08,05,21,15.40
2019,08,08,05,22,15.40
2019,08,08,05,23,15.30
2019,08,08,05,24,15.30
2019,08,08,05,25,15.30
2019,08,08,05,26,15.30
2019,08,08,05,27,15.30
2019,08,08,05,28,15.30
2019,08,08,05,29,15.30
2019,08,08,05,30,15.30
2019,08,08,05,31,15.30
2019,08,08,05,32,15.30
2019,08,08,05,33,15.30
2019,08,08,05,34,15.30
2019,08,08,05,35,15.40
2019,08,08,05,36,15.40
2019,08,08,05,37,15.40
2019,08,08,05,38,15.40
2019,08,08,05,39,15.40
2019,08,08,05,40,15.40
2019,08,08,05,41,15.40
2019,08,08,05,42,15.40
2019,08,08,05,43,15.40
2019,08,08,05,44,15.40
2019,08,08,05,45,15.40
2019,08,08,05,46,15.40
2019,08,08,05,47,15.40
2019,08,08,05,48,15.40
2019,08,08,05,49,15.40
2019,08,08,05,50,15.40
2019,08,08,05,51,15.40
2019,08,08,05,52,15.40
2019,08,08,05,53,15.50
2019,08,08,05,54,15.50
2019,08,08,05,55,15.50
2019,08,08,05,56,15.50
2019,08,08,05,57,15.50
2019,08,08,05,58,15.60
2019,08,08,05,59,15.60
2019,08,08,06,00,15.60
2019,08,08,06,01,15.70
2019,08,08,06,02,15.70
2019,08,08,06,03,15.70
2019,08,08,06,04,15.80
2019,08,08,06,05,15.80
2019,08,08,06,06,15.90
2019,08,08,06,07,15.90
2019,08,08,06,08,15.90
2019,08,08,06,09,16.00
2019,08,08,06,10,16.00
2019,08,08,06,11,16.10
2019,08,08,06,12,16.10
2019,08,08,06,13,16.10
2019,08,08,06,14,16.20
2019,08,08,06,15,16.20
2019,08,08,06,16,16.20
2019,08,08,06,17,16.20
2019,08,08,06,18,16.30
2019,08,08,06,19,16.30
2019,08,08,06,20,16.30
2019,08,08,06,21,16.30
2019,08,08,06,22,16.30
2019,08,08,06,23,16.30
2019,08,08,06,24,16.30
2019,08,08,06,25,16.40
2019,08,08,06,26,16.40
2019,08,08,06,27,16.40
2019,08,08,06,28,16.40
2019,08,08,06,29,16.50
2019,08,08,06,30,16.50
2019,08,08,06,31,16.50
2019,08,08,06,32,16.60
2019,08,08,06,33,16.60
2019,08,08,06,34,16.60
2019,08,08,06,35,16.60
2019,08,08,06,36,16.60
2019,08,08,06,37,16.60
2019,08,08,06,38,16.70
2019,08,08,06,39,16.70
2019,08,08,06,40,16.70
2019,08,08,06,41,16.80
2019,08,08,06,42,16.80
2019,08,08,06,43,16.80
2019,08,08,06,44,16.80
2019,08,08,06,45,16.80
2019,08,08,06,46,16.80
2019,08,08,06,47,16.90
2019,08,08,06,48,16.90
2019,08,08,06,49,16.90
2019,08,08,06,50,16.90
2019,08,08,06,51,16.90
2019,08,08,06,52,16.90
2019,08,08,06,53,17.00
2019,08,08,06,54,16.90
2019,08,08,06,55,17.00
2019,08,08,06,56,17.00
2019,08,08,06,57,17.00
2019,08,08,06,58,17.00
2019,08,08,06,59,17.10
2019,08,08,07,00,17.10
2019,08,08,07,01,17.10
2019,08,08,07,02,17.10
2019,08,08,07,03,17.10
2019,08,08,07,04,17.10
2019,08,08,07,05,17.20
2019,08,08,07,06,17.20
2019,08,08,07,07,17.20
2019,08,08,07,08,17.20
2019,08,08,07,09,17.20
2019,08,08,07,10,17.20
2019,08,08,07,11,17.20
2019,08,08,07,12,17.20
2019,08,08,07,13,17.20
2019,08,08,07,14,17.30
2019,08,08,07,15,17.30
2019,08,08,07,16,17.30
2019,08,08,07,17,17.30
2019,08,08,07,18,17.30
2019,08,08,07,19,17.30
2019,08,08,07,20,17.30
2019,08,08,07,21,17.30
2019,08,08,07,22,17.30
2019,08,08,07,23,17.40
2019,08,08,07,24,17.40
2019,08,08,07,25,17.40
2019,08,08,07,26,17.40
2019,08,08,07,27,17.40
2019,08,08,07,28,17.40
2019,08,08,07,29,17.40
2019,08,08,07,30,17.40
2019,08,08,07,31,17.40
2019,08,08,07,32,17.40
2019,08,08,07,33,17.40
2019,08,08,07,34,17.50
2019,08,08,07,35,17.50
2019,08,08,07,36,17.50
2019,08,08,07,37,17.50
2019,08,08,07,38,17.50
2019,08,08,07,39,17.50
2019,08,08,07,40,17.50
2019,08,08,07,41,17.50
2019,08,08,07,42,17.50
2019,08,08,07,43,17.60
2019,08,08,07,44,17.60
2019,08,08,07,45,17.60
2019,08,08,07,46,17.60
2019,08,08,07,47,17.60
2019,08,08,07,48,17.70
2019,08,08,07,49,17.70
2019,08,08,07,50,17.70
2019,08,08,07,51,17.70
2019,08,08,07,52,17.70
2019,08,08,07,53,17.70
2019,08,08,07,54,17.70
2019,08,08,07,55,17.70
2019,08,08,07,56,17.80
2019,08,08,07,57,17.80
2019,08,08,07,58,17.80
2019,08,08,07,59,17.80
2019,08,08,08,00,17.80
2019,08,08,08,01,17.80
2019,08,08,08,02,17.80
2019,08,08,08,03,17.90
2019,08,08,08,04,17.90
2019,08,08,08,05,17.90
2019,08,08,08,06,17.90
2019,08,08,08,07,17.90
2019,08,08,08,08,17.90
2019,08,08,08,09,17.90
2019,08,08,08,10,17.90
2019,08,08,08,11,18.00
2019,08,08,08,12,18.00
2019,08,08,08,13,18.10
2019,08,08,08,14,18.10
2019,08,08,08,15,18.10
2019,08,08,08,16,18.10
2019,08,08,08,17,18.10
2019,08,08,08,18,18.10
2019,08,08,08,19,18.20
2019,08,08,08,20,18.10
2019,08,08,08,21,18.10
2019,08,08,08,22,18.10
2019,08,08,08,23,18.20
2019,08,08,08,24,18.20
2019,08,08,08,25,18.20
2019,08,08,08,26,18.30
2019,08,08,08,27,18.30
2019,08,08,08,28,18.30
2019,08,08,08,29,18.30
2019,08,08,08,30,18.30
2019,08,08,08,31,18.30
2019,08,08,08,32,18.30
2019,08,08,08,33,18.30
2019,08,08,08,34,18.30
2019,08,08,08,35,18.30
2019,08,08,08,36,18.30
2019,08,08,08,37,18.30
2019,08,08,08,38,18.30
2019,08,08,08,39,18.30
2019,08,08,08,40,18.30
2019,08,08,08,41,18.30
2019,08,08,08,42,18.30
2019,08,08,08,43,18.30
2019,08,08,08,44,18.30
2019,08,08,08,45,18.30
2019,08,08,08,46,18.30
2019,08,08,08,47,18.30
2019,08,08,08,48,18.30
2019,08,08,08,49,18.30
2019,08,08,08,50,18.30
2019,08,08,08,51,18.30
2019,08,08,08,52,18.30
2019,08,08,08,53,18.30
2019,08,08,08,54,18.30
2019,08,08,08,55,18.30
2019,08,08,08,56,18.40
2019,08,08,08,57,18.40
2019,08,08,08,58,18.40
2019,08,08,08,59,18.40
2019,08,08,09,00,18.50
2019,08,08,09,01,18.60
2019,08,08,09,02,18.60
2019,08,08,09,03,18.70
2019,08,08,09,04,18.70
2019,08,08,09,05,18.70
2019,08,08,09,06,18.70
2019,08,08,09,07,18.70
2019,08,08,09,08,18.70
2019,08,08,09,09,18.70
2019,08,08,09,10,18.70
2019,08,08,09,11,18.60
2019,08,08,09,12,18.60
2019,08,08,09,13,18.70
2019,08,08,09,14,18.70
2019,08,08,09,15,18.70
2019,08,08,09,16,18.70
2019,08,08,09,17,18.70
2019,08,08,09,18,18.70
2019,08,08,09,19,18.70
2019,08,08,09,20,18.70
2019,08,08,09,21,18.70
2019,08,08,09,22,18.70
2019,08,08,09,23,18.70
2019,08,08,09,24,18.70
2019,08,08,09,25,18.70
2019,08,08,09,26,18.70
2019,08,08,09,27,18.70
2019,08,08,09,28,18.60
2019,08,08,09,29,18.60
2019,08,08,09,30,18.60
2019,08,08,09,31,18.60
2019,08,08,09,32,18.60
2019,08,08,09,33,18.60
2019,08,08,09,34,18.60
2019,08,08,09,35,18.60
2019,08,08,09,36,18.60
2019,08,08,09,37,18.60
2019,08,08,09,38,18.70
2019,08,08,09,39,18.70
2019,08,08,09,40,18.70
2019,08,08,09,41,18.70
2019,08,08,09,42,18.70
2019,08,08,09,43,18.70
2019,08,08,09,44,18.70
2019,08,08,09,45,18.80
2019,08,08,09,46,18.80
2019,08,08,09,47,18.80
2019,08,08,09,48,18.80
2019,08,08,09,49,18.80
2019,08,08,09,50,18.70
2019,08,08,09,51,18.70
2019,08,08,09,52,18.70
2019,08,08,09,53,18.70
2019,08,08,09,54,18.70
2019,08,08,09,55,18.70
2019,08,08,09,56,18.70
2019,08,08,09,57,18.70
2019,08,08,09,58,18.60
2019,08,08,09,59,18.60
2019,08,08,10,00,18.60
2019,08,08,10,01,18.60
2019,08,08,10,02,18.50
2019,08,08,10,03,18.50
2019,08,08,10,04,18.50
2019,08,08,10,05,18.50
2019,08,08,10,06,18.50
2019,08,08,10,07,18.50
2019,08,08,10,08,18.60
2019,08,08,10,09,18.60
2019,08,08,10,10,18.60
2019,08,08,10,11,18.60
2019,08,08,10,12,18.50
2019,08,08,10,13,18.50
2019,08,08,10,14,18.50
2019,08,08,10,15,18.60
2019,08,08,10,16,18.50
2019,08,08,10,17,18.50
2019,08,08,10,18,18.50
2019,08,08,10,19,18.50
2019,08,08,10,20,18.50
2019,08,08,10,21,18.50
2019,08,08,10,22,18.50
2019,08,08,10,23,18.50
2019,08,08,10,24,18.50
2019,08,08,10,25,18.60
2019,08,08,10,26,18.60
2019,08,08,10,27,18.60
2019,08,08,10,28,18.60
2019,08,08,10,29,18.60
2019,08,08,10,30,18.70
2019,08,08,10,31,18.70
2019,08,08,10,32,18.70
2019,08,08,10,33,18.70
2019,08,08,10,34,18.80
2019,08,08,10,35,18.80
2019,08,08,10,36,18.80
2019,08,08,10,37,18.80
2019,08,08,10,38,18.90
2019,08,08,10,39,18.90
2019,08,08,10,40,18.90
2019,08,08,10,41,18.90
2019,08,08,10,42,18.90
2019,08,08,10,43,19.00
2019,08,08,10,44,19.00
2019,08,08,10,45,19.00
2019,08,08,10,46,19.00
2019,08,08,10,47,19.00
2019,08,08,10,48,19.10
2019,08,08,10,49,19.10
2019,08,08,10,50,19.00
2019,08,08,10,51,19.10
2019,08,08,10,52,19.00
2019,08,08,10,53,19.10
2019,08,08,10,54,19.10
2019,08,08,10,55,19.10
2019,08,08,10,56,19.10
2019,08,08,10,57,19.20
2019,08,08,10,58,19.20
2019,08,08,10,59,19.20
2019,08,08,11,00,19.20
2019,08,08,11,01,19.20
2019,08,08,11,02,19.20
2019,08,08,11,03,19.20
2019,08,08,11,04,19.20
2019,08,08,11,05,19.20
2019,08,08,11,06,19.20
2019,08,08,11,07,19.20
2019,08,08,11,08,19.20
2019,08,08,11,09,19.20
2019,08,08,11,10,19.20
2019,08,08,11,11,19.20
2019,08,08,11,12,19.20
2019,08,08,11,13,19.20
2019,08,08,11,14,19.30
2019,08,08,11,15,19.30
2019,08,08,11,16,19.30
2019,08,08,11,17,19.40
2019,08,08,11,18,19.40
2019,08,08,11,19,19.40
2019,08,08,11,20,19.40
2019,08,08,11,21,19.40
2019,08,08,11,22,19.40
2019,08,08,11,23,19.40
2019,08,08,11,24,19.50
2019,08,08,11,25,19.50
2019,08,08,11,26,19.40
2019,08,08,11,27,19.50
2019,08,08,11,28,19.50
2019,08,08,11,29,19.50
2019,08,08,11,30,19.60
2019,08,08,11,31,19.50
2019,08,08,11,32,19.60
2019,08,08,11,33,19.60
2019,08,08,11,34,19.60
2019,08,08,11,35,19.60
2019,08,08,11,36,19.60
2019,08,08,11,37,19.60
2019,08,08,11,38,19.60
2019,08,08,11,39,19.60
2019,08,08,11,40,19.70
2019,08,08,11,41,19.70
2019,08,08,11,42,19.70
2019,08,08,11,43,19.70
2019,08,08,11,44,19.60
2019,08,08,11,45,19.60
2019,08,08,11,46,19.60
2019,08,08,11,47,19.50
2019,08,08,11,48,19.50
2019,08,08,11,49,19.40
2019,08,08,11,50,19.40
2019,08,08,11,51,19.40
2019,08,08,11,52,19.40
2019,08,08,11,53,19.40
2019,08,08,11,54,19.40
2019,08,08,11,55,19.40
2019,08,08,11,56,19.40
2019,08,08,11,57,19.40
2019,08,08,11,58,19.40
2019,08,08,11,59,19.30
2019,08,08,12,00,19.30
2019,08,08,12,01,19.30
2019,08,08,12,02,19.30
2019,08,08,12,03,19.30
2019,08,08,12,04,19.30
2019,08,08,12,05,19.30
2019,08,08,12,06,19.40
2019,08,08,12,07,19.40
2019,08,08,12,08,19.40
2019,08,08,12,09,19.50
2019,08,08,12,10,19.50
2019,08,08,12,11,19.50
2019,08,08,12,12,19.50
2019,08,08,12,13,19.50
2019,08,08,12,14,19.50
2019,08,08,12,15,19.50
2019,08,08,12,16,19.50
2019,08,08,12,17,19.50
2019,08,08,12,18,19.50
2019,08,08,12,19,19.50
2019,08,08,12,20,19.60
2019,08,08,12,21,19.60
2019,08,08,12,22,19.60
2019,08,08,12,23,19.60
2019,08,08,12,24,19.60
2019,08,08,12,25,19.60
2019,08,08,12,26,19.60
2019,08,08,12,27,19.70
2019,08,08,12,28,19.70
2019,08,08,12,29,19.70
2019,08,08,12,30,19.70
2019,08,08,12,31,19.70
2019,08,08,12,32,19.70
2019,08,08,12,33,19.60
2019,08,08,12,34,19.60
2019,08,08,12,35,19.60
2019,08,08,12,36,19.70
2019,08,08,12,37,19.70
2019,08,08,12,38,19.80
2019,08,08,12,39,19.80
2019,08,08,12,40,19.90
2019,08,08,12,41,19.90
2019,08,08,12,42,20.00
2019,08,08,12,43,20.00
2019,08,08,12,44,20.00
2019,08,08,12,45,20.00
2019,08,08,12,46,20.00
2019,08,08,12,47,19.90
2019,08,08,12,48,19.80
2019,08,08,12,49,19.80
2019,08,08,12,50,19.80
2019,08,08,12,51,19.70
2019,08,08,12,52,19.70
2019,08,08,12,53,19.70
2019,08,08,12,54,19.80
2019,08,08,12,55,19.80
2019,08,08,12,56,19.80
2019,08,08,12,57,19.90
2019,08,08,12,58,19.90
2019,08,08,12,59,19.80
2019,08,08,13,00,19.80
2019,08,08,13,01,19.90
2019,08,08,13,02,19.90
2019,08,08,13,03,20.00
2019,08,08,13,04,20.10
2019,08,08,13,05,20.20
2019,08,08,13,06,20.20
2019,08,08,13,07,20.20
2019,08,08,13,08,20.20
2019,08,08,13,09,20.30
2019,08,08,13,10,20.30
2019,08,08,13,11,20.30
2019,08,08,13,12,20.30
2019,08,08,13,13,20.30
2019,08,08,13,14,20.20
2019,08,08,13,15,20.20
2019,08,08,13,16,20.20
2019,08,08,13,17,20.30
2019,08,08,13,18,20.30
2019,08,08,13,19,20.30
2019,08,08,13,20,20.40
2019,08,08,13,21,20.40
2019,08,08,13,22,20.40
2019,08,08,13,23,20.40
2019,08,08,13,24,20.40
2019,08,08,13,25,20.40
2019,08,08,13,26,20.40
2019,08,08,13,27,20.40
2019,08,08,13,28,20.40
2019,08,08,13,29,20.40
2019,08,08,13,30,20.40
2019,08,08,13,31,20.40
2019,08,08,13,32,20.40
2019,08,08,13,33,20.50
2019,08,08,13,34,20.60
2019,08,08,13,35,20.70
2019,08,08,13,36,20.70
2019,08,08,13,37,20.80
2019,08,08,13,38,20.80
2019,08,08,13,39,20.80
2019,08,08,13,40,20.80
2019,08,08,13,41,20.80
2019,08,08,13,42,20.80
2019,08,08,13,43,20.70
2019,08,08,13,44,20.70
2019,08,08,13,45,20.70
2019,08,08,13,46,20.70
2019,08,08,13,47,20.80
2019,08,08,13,48,20.90
2019,08,08,13,49,21.00
2019,08,08,13,50,21.00
2019,08,08,13,51,21.10
2019,08,08,13,52,21.10
2019,08,08,13,53,21.20
2019,08,08,13,54,21.20
2019,08,08,13,55,21.20
2019,08,08,13,56,21.20
2019,08,08,13,57,21.20
2019,08,08,13,58,21.30
2019,08,08,13,59,21.30
2019,08,08,14,00,21.20
2019,08,08,14,01,21.20
2019,08,08,14,02,21.20
2019,08,08,14,03,21.20
2019,08,08,14,04,21.20
2019,08,08,14,05,21.20
2019,08,08,14,06,21.20
2019,08,08,14,07,21.30
2019,08,08,14,08,21.20
2019,08,08,14,09,21.20
2019,08,08,14,10,21.20
2019,08,08,14,11,21.20
2019,08,08,14,12,21.20
2019,08,08,14,13,21.30
2019,08,08,14,14,21.40
2019,08,08,14,15,21.40
2019,08,08,14,16,21.40
2019,08,08,14,17,21.40
2019,08,08,14,18,21.40
2019,08,08,14,19,21.40
2019,08,08,14,20,21.30
2019,08,08,14,21,21.30
2019,08,08,14,22,21.30
2019,08,08,14,23,21.30
2019,08,08,14,24,21.30
2019,08,08,14,25,21.30
2019,08,08,14,26,21.20
2019,08,08,14,27,21.20
2019,08,08,14,28,21.20
2019,08,08,14,29,21.20
2019,08,08,14,30,21.20
2019,08,08,14,31,21.20
2019,08,08,14,32,21.30
2019,08,08,14,33,21.40
2019,08,08,14,34,21.40
2019,08,08,14,35,21.50
2019,08,08,14,36,21.50
2019,08,08,14,37,21.60
2019,08,08,14,38,21.60
2019,08,08,14,39,21.70
2019,08,08,14,40,21.80
2019,08,08,14,41,21.80
2019,08,08,14,42,21.90
2019,08,08,14,43,21.80
2019,08,08,14,44,21.80
2019,08,08,14,45,21.90
2019,08,08,14,46,21.90
2019,08,08,14,47,21.90
2019,08,08,14,48,21.90
2019,08,08,14,49,22.00
2019,08,08,14,50,22.00
2019,08,08,14,51,22.10
2019,08,08,14,52,22.10
2019,08,08,14,53,22.10
2019,08,08,14,54,22.10
2019,08,08,14,55,22.10
2019,08,08,14,56,22.00
2019,08,08,14,57,21.90
2019,08,08,14,58,21.80
2019,08,08,14,59,21.80
2019,08,08,15,00,21.80
2019,08,08,15,01,21.80
2019,08,08,15,02,21.90
2019,08,08,15,03,21.90
2019,08,08,15,04,22.00
2019,08,08,15,05,22.00
2019,08,08,15,06,22.10
2019,08,08,15,07,22.10
2019,08,08,15,08,22.10
2019,08,08,15,09,22.10
2019,08,08,15,10,22.10
2019,08,08,15,11,22.00
2019,08,08,15,12,21.90
2019,08,08,15,13,21.90
2019,08,08,15,14,21.90
2019,08,08,15,15,21.80
2019,08,08,15,16,21.80
2019,08,08,15,17,21.80
2019,08,08,15,18,21.80
2019,08,08,15,19,21.80
2019,08,08,15,20,21.80
2019,08,08,15,21,21.80
2019,08,08,15,22,21.80
2019,08,08,15,23,21.80
2019,08,08,15,24,21.80
2019,08,08,15,25,21.80
2019,08,08,15,26,21.80
2019,08,08,15,27,21.80
2019,08,08,15,28,21.70
2019,08,08,15,29,21.70
2019,08,08,15,30,21.70
2019,08,08,15,31,21.70
2019,08,08,15,32,21.70
2019,08,08,15,33,21.70
2019,08,08,15,34,21.70
2019,08,08,15,35,21.80
2019,08,08,15,36,21.80
2019,08,08,15,37,21.80
2019,08,08,15,38,21.80
2019,08,08,15,39,21.80
2019,08,08,15,40,21.80
2019,08,08,15,41,21.80
2019,08,08,15,42,21.80
2019,08,08,15,43,21.80
2019,08,08,15,44,21.80
2019,08,08,15,45,21.80
2019,08,08,15,46,21.80
2019,08,08,15,47,21.70
2019,08,08,15,48,21.70
2019,08,08,15,49,21.80
2019,08,08,15,50,21.70
2019,08,08,15,51,21.80
2019,08,08,15,52,21.80
2019,08,08,15,53,21.80
2019,08,08,15,54,21.80
2019,08,08,15,55,21.80
2019,08,08,15,56,21.80
2019,08,08,15,57,21.80
2019,08,08,15,58,21.80
2019,08,08,15,59,21.80
2019,08,08,16,00,21.80
2019,08,08,16,01,21.80
2019,08,08,16,02,21.80
2019,08,08,16,03,21.80
2019,08,08,16,04,21.80
2019,08,08,16,05,21.80
2019,08,08,16,06,21.90
2019,08,08,16,07,21.90
2019,08,08,16,08,21.90
2019,08,08,16,09,21.90
2019,08,08,16,10,21.90
2019,08,08,16,11,21.90
2019,08,08,16,12,21.90
2019,08,08,16,13,21.90
2019,08,08,16,14,21.80
2019,08,08,16,15,21.80
2019,08,08,16,16,21.80
2019,08,08,16,17,21.80
2019,08,08,16,18,21.90
2019,08,08,16,19,21.90
2019,08,08,16,20,21.90
2019,08,08,16,21,22.00
2019,08,08,16,22,22.00
2019,08,08,16,23,22.10
2019,08,08,16,24,22.10
2019,08,08,16,25,22.10
2019,08,08,16,26,22.10
2019,08,08,16,27,22.10
2019,08,08,16,28,22.00
2019,08,08,16,29,22.00
2019,08,08,16,30,22.00
2019,08,08,16,31,22.00
2019,08,08,16,32,22.10
2019,08,08,16,33,22.10
2019,08,08,16,34,22.20
2019,08,08,16,35,22.20
2019,08,08,16,36,22.20
2019,08,08,16,37,22.20
2019,08,08,16,38,22.10
2019,08,08,16,39,22.10
2019,08,08,16,40,22.10
2019,08,08,16,41,22.10
2019,08,08,16,42,22.00
2019,08,08,16,43,21.90
2019,08,08,16,44,22.00
2019,08,08,16,45,22.00
2019,08,08,16,46,22.00
2019,08,08,16,47,22.00
2019,08,08,16,48,22.00
2019,08,08,16,49,21.90
2019,08,08,16,50,22.00
2019,08,08,16,51,22.00
2019,08,08,16,52,21.90
2019,08,08,16,53,21.80
2019,08,08,16,54,21.80
2019,08,08,16,55,21.70
2019,08,08,16,56,21.70
2019,08,08,16,57,21.70
2019,08,08,16,58,21.70
2019,08,08,16,59,21.60
2019,08,08,17,00,21.60
2019,08,08,17,01,21.60
2019,08,08,17,02,21.60
2019,08,08,17,03,21.60
2019,08,08,17,04,21.50
2019,08,08,17,05,21.40
2019,08,08,17,06,21.40
2019,08,08,17,07,21.30
2019,08,08,17,08,21.30
2019,08,08,17,09,21.30
2019,08,08,17,10,21.30
2019,08,08,17,11,21.30
2019,08,08,17,12,21.30
2019,08,08,17,13,21.40
2019,08,08,17,14,21.50
2019,08,08,17,15,21.50
2019,08,08,17,16,21.50
2019,08,08,17,17,21.50
2019,08,08,17,18,21.40
2019,08,08,17,19,21.40